{"data":{"norad_id":63855,"intl_designator":"2025-093V","name":"STARLINK-33969","alt_names":[],"object_type":"PAYLOAD","status":"ACTIVE","operator":null,"country":"US","launch_date":"2025-05-07","launch_site_code":"AFETR","launch_vehicle":null,"mission":null,"orbit_class":"UNKNOWN","rcs_meters":null,"size_class":null,"mass_kg":null,"dimensions":null,"purposes":["comms"],"wikipedia_slug":null,"has_3d_model":false,"image_url":null,"decayed_at":null,"tle_current":{"epoch":"2026-09-20T20:57:28.260000Z","epoch_age_seconds":117652,"freshness":"FRESH","line1":"1 63855U 25093V   26263.87324375  .00013784  00000+0  50931-3 0  9997","line2":"2 63855  43.0050  55.5293 0001158 271.7911  88.2808 15.27590402 77602","mean_motion":15.27590402,"eccentricity":0.0001158,"inclination_deg":43.005,"raan_deg":55.5293,"arg_perigee_deg":271.7911,"mean_anomaly_deg":88.2808,"bstar":0.00050931,"rev_number":7760,"period_min":94.266106812054,"perigee_km":482.22342714322,"apogee_km":483.81247062938,"semimajor_km":6861.1549488863,"source":"CELESTRAK","updated_at":"2026-09-21T09:00:35.134823Z"}}}